CES525 ZWWW-ZSPD

Flight info

Callsign CES525
Flight time 4h 8m
Altitude 37100
Route WUR W190 ADPET W188 DAKPA W189 AKLAS W192 ESDEX W191 PANRA W191 DNC W565 BIGUX W214 HO DCT EPDOR DCT ATGEN W283 SUDGO W4 UPSIK W282 NUGSA DCT ML W118 REVKU DCT FYG B208 HFE R343 EKIMU
Aircraft B77W/H-SDE1E2E3FGHIJ2J3J4J5M1RWXY/LB1D1

Departure

Time 2026-05-05 03:40
Airport Ürümqi Tianshan International Airport (ZWWW)

Arrival

Time 2026-05-05 07:48
Airport Shanghai Pudong International Airport (ZSPD)
Time Latitude Longitude Altitude Speed Heading
2026-05-05 03:12 43.91438 87.47478 2140 ft 0 kts 43°
2026-05-05 03:20 43.91434 87.47474 2140 ft 2 kts 43°
2026-05-05 03:21 43.91420 87.47456 2139 ft 3 kts 43°
2026-05-05 03:21 43.91406 87.47437 2139 ft 3 kts 42°
2026-05-05 03:21 43.91390 87.47418 2137 ft 3 kts 38°
2026-05-05 03:21 43.91374 87.47402 2138 ft 3 kts 29°
2026-05-05 03:22 43.91358 87.47391 2139 ft 3 kts 11°
2026-05-05 03:22 43.91344 87.47389 2138 ft 2 kts 346°
2026-05-05 03:22 43.91340 87.47390 2139 ft 0 kts 343°
2026-05-05 03:27 43.91381 87.47327 2140 ft 16 kts 276°
2026-05-05 03:27 43.91338 87.47190 2140 ft 16 kts 247°
2026-05-05 03:27 43.91308 87.47045 2140 ft 16 kts 254°
2026-05-05 03:27 43.91277 87.46900 2140 ft 16 kts 254°
2026-05-05 03:28 43.91299 87.46833 2140 ft 7 kts 333°
2026-05-05 03:28 43.91356 87.46814 2140 ft 11 kts 345°
2026-05-05 03:28 43.91451 87.46775 2139 ft 15 kts 342°
2026-05-05 03:28 43.91544 87.46721 2140 ft 14 kts 319°
2026-05-05 03:29 43.91587 87.46626 2140 ft 11 kts 322°
2026-05-05 03:29 43.91656 87.46585 2140 ft 11 kts 341°
2026-05-05 03:29 43.91737 87.46550 2140 ft 13 kts 343°
2026-05-05 03:29 43.91822 87.46513 2140 ft 13 kts 343°
2026-05-05 03:30 43.91907 87.46477 2140 ft 12 kts 343°
2026-05-05 03:30 43.91912 87.46475 2140 ft 0 kts 342°
2026-05-05 03:30 43.91916 87.46473 2141 ft 1 kts 343°
2026-05-05 03:30 43.91949 87.46490 2141 ft 8 kts 43°
2026-05-05 03:31 43.91979 87.46588 2140 ft 12 kts 73°
2026-05-05 03:31 43.92003 87.46696 2141 ft 13 kts 73°
2026-05-05 03:31 43.92032 87.46827 2141 ft 14 kts 73°
2026-05-05 03:31 43.92061 87.46961 2140 ft 15 kts 73°
2026-05-05 03:32 43.92093 87.47114 2140 ft 17 kts 74°
2026-05-05 03:32 43.92126 87.47269 2140 ft 17 kts 73°
2026-05-05 03:32 43.92161 87.47428 2140 ft 17 kts 73°
2026-05-05 03:32 43.92200 87.47610 2141 ft 20 kts 73°
2026-05-05 03:33 43.92240 87.47795 2141 ft 20 kts 73°
2026-05-05 03:33 43.92280 87.47983 2141 ft 20 kts 73°
2026-05-05 03:33 43.92320 87.48171 2141 ft 20 kts 73°
2026-05-05 03:33 43.92360 87.48360 2141 ft 20 kts 74°
2026-05-05 03:34 43.92400 87.48548 2140 ft 20 kts 73°
2026-05-05 03:34 43.92439 87.48735 2140 ft 20 kts 73°
2026-05-05 03:34 43.92481 87.48923 2140 ft 20 kts 75°
2026-05-05 03:34 43.92517 87.49112 2140 ft 20 kts 75°
2026-05-05 03:35 43.92559 87.49299 2140 ft 20 kts 71°
2026-05-05 03:35 43.92569 87.49340 2141 ft 0 kts 71°
2026-05-05 03:36 43.92572 87.49351 2140 ft 6 kts 71°
2026-05-05 03:36 43.92601 87.49447 2140 ft 14 kts 52°
2026-05-05 03:36 43.92722 87.49439 2140 ft 14 kts 341°
2026-05-05 03:37 43.92784 87.49410 2140 ft 14 kts 341°
2026-05-05 03:37 43.92829 87.49372 2141 ft 7 kts 305°
2026-05-05 03:37 43.92827 87.49308 2141 ft 7 kts 251°
2026-05-05 03:37 43.92822 87.49286 2142 ft 0 kts 251°
2026-05-05 03:39 43.92822 87.49285 2142 ft 0 kts 251°
2026-05-05 03:39 43.92779 87.49098 2141 ft 60 kts 253°
2026-05-05 03:39 43.92568 87.48103 2142 ft 153 kts 253°
2026-05-05 03:39 43.92232 87.46429 2471 ft 198 kts 252°
2026-05-05 03:40 43.91731 87.44582 3142 ft 208 kts 256°
2026-05-05 03:40 43.91508 87.42635 4246 ft 204 kts 262°
2026-05-05 03:40 43.91310 87.40678 5134 ft 210 kts 263°
2026-05-05 03:40 43.91083 87.38608 5737 ft 222 kts 263°
2026-05-05 03:41 43.90836 87.36448 6491 ft 230 kts 263°
2026-05-05 03:41 43.90569 87.34245 7255 ft 234 kts 263°
2026-05-05 03:41 43.90290 87.32001 7998 ft 240 kts 263°
2026-05-05 03:41 43.89997 87.29669 8749 ft 251 kts 263°
2026-05-05 03:42 43.89691 87.27248 9618 ft 258 kts 264°
2026-05-05 03:42 43.89800 87.24790 10367 ft 260 kts 294°
2026-05-05 03:42 43.90928 87.22868 11237 ft 263 kts 327°
2026-05-05 03:42 43.92686 87.22167 12148 ft 272 kts 360°
2026-05-05 03:43 43.94516 87.22954 13015 ft 286 kts 31°
2026-05-05 03:43 43.95836 87.25057 13931 ft 299 kts 63°
2026-05-05 03:43 43.96254 87.27942 14622 ft 317 kts 92°
2026-05-05 03:43 43.95705 87.31022 14943 ft 346 kts 111°
2026-05-05 03:44 43.94638 87.34170 15161 ft 375 kts 116°
2026-05-05 03:44 43.93439 87.37530 15364 ft 403 kts 114°
2026-05-05 03:44 43.92364 87.41212 15867 ft 419 kts 107°
2026-05-05 03:44 43.91783 87.45214 16579 ft 427 kts 91°
2026-05-05 03:45 43.92162 87.49250 17349 ft 431 kts 69°
2026-05-05 03:45 43.93610 87.52856 18231 ft 430 kts 46°
2026-05-05 03:45 43.95934 87.55490 18968 ft 427 kts 24°
2026-05-05 03:45 43.98694 87.56717 19681 ft 422 kts
2026-05-05 03:46 44.01628 87.57043 20420 ft 425 kts 359°
2026-05-05 03:46 44.04613 87.57332 21130 ft 434 kts
2026-05-05 03:46 44.07631 87.57925 21822 ft 443 kts
2026-05-05 03:46 44.10676 87.58852 22523 ft 452 kts 10°
2026-05-05 03:47 44.13735 87.60023 23199 ft 460 kts 12°
2026-05-05 03:47 44.16815 87.61332 23812 ft 467 kts 13°
2026-05-05 03:47 44.19938 87.62706 24384 ft 472 kts 13°
2026-05-05 03:47 44.23086 87.64088 25007 ft 475 kts 13°
2026-05-05 03:48 44.26247 87.65453 25636 ft 478 kts 12°
2026-05-05 03:48 44.29450 87.66818 26232 ft 482 kts 12°
2026-05-05 03:48 44.32612 87.68272 26725 ft 489 kts 18°
2026-05-05 03:48 44.35606 87.70660 27150 ft 505 kts 33°
2026-05-05 03:49 44.38197 87.74021 27688 ft 510 kts 43°
2026-05-05 03:49 44.40674 87.77612 28139 ft 515 kts 41°
2026-05-05 03:49 44.43271 87.81081 28585 ft 518 kts 39°
2026-05-05 03:49 44.45953 87.84477 29058 ft 521 kts 37°
2026-05-05 03:50 44.48663 87.87856 29508 ft 524 kts 37°
2026-05-05 03:50 44.51385 87.91284 29934 ft 528 kts 38°
2026-05-05 03:50 44.53963 87.94965 30172 ft 536 kts 49°
2026-05-05 03:50 44.55812 87.99560 30425 ft 547 kts 68°
2026-05-05 03:51 44.56746 88.04735 30967 ft 547 kts 83°
2026-05-05 03:51 44.56750 88.10038 31512 ft 543 kts 99°
2026-05-05 03:51 44.56102 88.15230 32054 ft 539 kts 102°
2026-05-05 03:51 44.55477 88.20416 32521 ft 539 kts 101°
2026-05-05 03:52 44.54967 88.25625 32985 ft 539 kts 99°
2026-05-05 03:52 44.54525 88.30831 33446 ft 538 kts 98°
2026-05-05 03:52 44.54102 88.36027 33905 ft 537 kts 98°
2026-05-05 03:52 44.53666 88.41214 34317 ft 535 kts 99°
2026-05-05 03:53 44.53218 88.46322 34665 ft 535 kts 99°
2026-05-05 03:53 44.52752 88.51486 34997 ft 535 kts 99°
2026-05-05 03:53 44.52289 88.56653 35318 ft 535 kts 99°
2026-05-05 03:53 44.51833 88.61831 35650 ft 534 kts 99°
2026-05-05 03:54 44.51380 88.67003 35974 ft 534 kts 98°
2026-05-05 03:54 44.50927 88.72160 36300 ft 534 kts 98°
2026-05-05 03:54 44.50469 88.77331 36601 ft 534 kts 98°
2026-05-05 03:54 44.50008 88.82488 36901 ft 534 kts 98°
2026-05-05 03:55 44.49543 88.87657 37072 ft 537 kts 98°
2026-05-05 03:55 44.49070 88.92877 37121 ft 539 kts 98°
2026-05-05 03:55 44.48123 89.03291 37121 ft 537 kts 99°
2026-05-05 03:56 44.47168 89.13616 37130 ft 533 kts 99°
2026-05-05 03:56 44.46200 89.23835 37135 ft 533 kts 99°
2026-05-05 03:57 44.45217 89.34131 37134 ft 534 kts 99°
2026-05-05 03:57 44.44227 89.44438 37133 ft 535 kts 99°
2026-05-05 03:58 44.43218 89.54839 37131 ft 536 kts 99°
2026-05-05 03:58 44.42206 89.65187 37126 ft 537 kts 99°
2026-05-05 03:59 44.40775 89.75357 37130 ft 535 kts 109°
2026-05-05 03:59 44.38502 89.85239 37129 ft 534 kts 111°
2026-05-05 04:00 44.36201 89.95134 37125 ft 535 kts 110°
2026-05-05 04:00 44.33991 90.05066 37138 ft 535 kts 110°
2026-05-05 04:01 44.31814 90.15017 37129 ft 535 kts 110°
2026-05-05 04:01 44.29633 90.24944 37122 ft 534 kts 110°
2026-05-05 04:02 44.27435 90.34859 37138 ft 534 kts 110°
2026-05-05 04:02 44.25234 90.44724 37135 ft 532 kts 110°
2026-05-05 04:03 44.23028 90.54571 37137 ft 531 kts 110°
2026-05-05 04:03 44.20818 90.64394 37132 ft 531 kts 110°
2026-05-05 04:04 44.18599 90.74215 37129 ft 531 kts 110°
2026-05-05 04:04 44.16370 90.84030 37128 ft 532 kts 110°
2026-05-05 04:05 44.14133 90.93847 37132 ft 532 kts 110°
2026-05-05 04:05 44.11884 91.03669 37128 ft 533 kts 110°
2026-05-05 04:06 44.09630 91.13510 37133 ft 534 kts 110°
2026-05-05 04:06 44.07390 91.23292 37122 ft 534 kts 110°
2026-05-05 04:07 44.04990 91.33037 37109 ft 528 kts 121°
2026-05-05 04:07 44.02969 91.37211 37130 ft 515 kts 138°
2026-05-05 04:07 44.00287 91.40399 37135 ft 503 kts 153°
2026-05-05 04:08 43.94031 91.44153 37120 ft 480 kts 178°
2026-05-05 04:08 43.87463 91.45213 37123 ft 476 kts 180°
2026-05-05 04:09 43.80852 91.46289 37127 ft 480 kts 180°
2026-05-05 04:09 43.74208 91.47465 37112 ft 482 kts 179°
2026-05-05 04:10 43.67551 91.48673 37104 ft 482 kts 179°
2026-05-05 04:10 43.60904 91.49874 37087 ft 482 kts 179°
2026-05-05 04:11 43.54265 91.51065 37077 ft 480 kts 180°
2026-05-05 04:11 43.47641 91.52250 37057 ft 478 kts 180°
2026-05-05 04:12 43.41048 91.53430 37045 ft 477 kts 180°
2026-05-05 04:12 43.34509 91.54616 37030 ft 476 kts 180°
2026-05-05 04:13 43.27937 91.55808 37016 ft 476 kts 180°
2026-05-05 04:13 43.21360 91.56995 37007 ft 477 kts 180°
2026-05-05 04:14 43.14789 91.58179 36988 ft 477 kts 180°
2026-05-05 04:14 43.08192 91.59365 36979 ft 478 kts 180°
2026-05-05 04:15 43.01588 91.60549 36970 ft 479 kts 180°
2026-05-05 04:15 42.94969 91.61734 36956 ft 479 kts 180°
2026-05-05 04:16 42.88340 91.62918 36953 ft 480 kts 180°
2026-05-05 04:16 42.81721 91.64098 36941 ft 480 kts 181°
2026-05-05 04:17 42.75106 91.65275 36951 ft 480 kts 181°
2026-05-05 04:17 42.68521 91.66443 36938 ft 480 kts 181°
2026-05-05 04:18 42.61901 91.67616 36946 ft 479 kts 181°
2026-05-05 04:18 42.55297 91.68783 36949 ft 479 kts 181°
2026-05-05 04:19 42.48681 91.69956 36959 ft 479 kts 181°
2026-05-05 04:19 42.42077 91.71155 36959 ft 479 kts 180°
2026-05-05 04:20 42.35464 91.72354 36955 ft 479 kts 180°
2026-05-05 04:20 42.28853 91.73547 36960 ft 480 kts 180°
2026-05-05 04:21 42.23347 91.74537 36962 ft 480 kts 180°
2026-05-05 04:21 42.15598 91.75911 36966 ft 481 kts 180°
2026-05-05 04:22 42.09006 91.77074 36968 ft 481 kts 180°
2026-05-05 04:22 42.02358 91.78251 36963 ft 482 kts 180°
2026-05-05 04:23 41.95697 91.79430 36968 ft 482 kts 180°
2026-05-05 04:23 41.90162 91.80409 36964 ft 483 kts 180°
2026-05-05 04:24 41.82379 91.81781 36960 ft 483 kts 180°
2026-05-05 04:25 41.73505 91.83341 36948 ft 483 kts 180°
2026-05-05 04:25 41.66854 91.84610 36931 ft 487 kts 172°
2026-05-05 04:25 41.63672 91.86334 36948 ft 504 kts 155°
2026-05-05 04:26 41.60885 91.89263 36940 ft 519 kts 137°
2026-05-05 04:26 41.58740 91.93181 36963 ft 525 kts 126°
2026-05-05 04:26 41.56811 91.97340 36939 ft 528 kts 126°
2026-05-05 04:27 41.52962 92.05721 36939 ft 530 kts 126°
2026-05-05 04:27 41.49026 92.14060 36934 ft 532 kts 127°
2026-05-05 04:28 41.45007 92.22383 36922 ft 533 kts 127°
2026-05-05 04:28 41.41000 92.30619 36927 ft 533 kts 127°
2026-05-05 04:29 41.36945 92.38943 36918 ft 532 kts 127°
2026-05-05 04:29 41.32948 92.47138 36930 ft 531 kts 127°
2026-05-05 04:30 41.28927 92.55362 36915 ft 530 kts 127°
2026-05-05 04:30 41.24905 92.63566 36924 ft 529 kts 127°
2026-05-05 04:31 41.20886 92.71740 36915 ft 528 kts 127°
2026-05-05 04:31 41.16858 92.79912 36905 ft 528 kts 127°
2026-05-05 04:32 41.12826 92.88068 36910 ft 529 kts 127°
2026-05-05 04:32 41.08785 92.96223 36905 ft 529 kts 127°
2026-05-05 04:33 41.04737 93.04369 36886 ft 530 kts 127°
2026-05-05 04:33 41.00675 93.12523 36890 ft 530 kts 127°
2026-05-05 04:34 40.96605 93.20672 36886 ft 531 kts 126°
2026-05-05 04:34 40.92528 93.28813 36877 ft 531 kts 126°
2026-05-05 04:35 40.88442 93.36949 36882 ft 531 kts 126°
2026-05-05 04:35 40.84390 93.45008 36905 ft 527 kts 130°
2026-05-05 04:36 40.80366 93.52982 36877 ft 519 kts 130°
2026-05-05 04:36 40.76357 93.60897 36872 ft 519 kts 130°
2026-05-05 04:37 40.72072 93.68496 36853 ft 514 kts 136°
2026-05-05 04:37 40.67570 93.75817 36871 ft 514 kts 136°
2026-05-05 04:38 40.63064 93.83150 36854 ft 515 kts 136°
2026-05-05 04:38 40.58585 93.90526 36851 ft 516 kts 136°
2026-05-05 04:39 40.54111 93.97917 36847 ft 517 kts 136°
2026-05-05 04:39 40.49627 94.05308 36838 ft 517 kts 136°
2026-05-05 04:40 40.45139 94.12679 36841 ft 517 kts 136°
2026-05-05 04:40 40.40638 94.20049 36834 ft 517 kts 136°
2026-05-05 04:41 40.36133 94.27411 36832 ft 517 kts 136°
2026-05-05 04:41 40.31624 94.34762 36830 ft 517 kts 136°
2026-05-05 04:42 40.27107 94.42108 36832 ft 517 kts 136°
2026-05-05 04:42 40.22622 94.49386 36832 ft 516 kts 136°
2026-05-05 04:43 40.18111 94.56690 36843 ft 516 kts 136°
2026-05-05 04:43 40.13598 94.63983 36855 ft 516 kts 136°
2026-05-05 04:44 40.09219 94.71441 36855 ft 523 kts 127°
2026-05-05 04:44 40.06039 94.80087 36858 ft 530 kts 120°
2026-05-05 04:45 40.02959 94.88818 36860 ft 529 kts 121°
2026-05-05 04:45 39.99726 94.97418 36861 ft 528 kts 122°
2026-05-05 04:46 39.96455 95.06002 36874 ft 528 kts 122°
2026-05-05 04:46 39.93228 95.14517 36888 ft 527 kts 122°
2026-05-05 04:47 39.89985 95.23088 36897 ft 527 kts 122°
2026-05-05 04:47 39.86739 95.31644 36914 ft 527 kts 122°
2026-05-05 04:48 39.83485 95.40191 36924 ft 526 kts 122°
2026-05-05 04:48 39.80228 95.48720 36906 ft 525 kts 122°
2026-05-05 04:49 39.76979 95.57202 36943 ft 524 kts 122°
2026-05-05 04:49 39.73719 95.65692 36955 ft 525 kts 122°
2026-05-05 04:50 39.70470 95.74128 36959 ft 525 kts 122°
2026-05-05 04:50 39.67193 95.82613 36963 ft 526 kts 122°
2026-05-05 04:51 39.63909 95.91093 36967 ft 526 kts 122°
2026-05-05 04:51 39.60612 95.99582 36971 ft 526 kts 122°
2026-05-05 04:52 39.57314 96.08055 36965 ft 527 kts 122°
2026-05-05 04:52 39.53999 96.16511 36982 ft 526 kts 123°
2026-05-05 04:53 39.50685 96.24879 37000 ft 524 kts 123°
2026-05-05 04:53 39.47350 96.33280 36997 ft 524 kts 123°
2026-05-05 04:54 39.44020 96.41660 37004 ft 523 kts 123°
2026-05-05 04:54 39.40689 96.50020 36998 ft 522 kts 123°
2026-05-05 04:55 39.37356 96.58365 37002 ft 522 kts 123°
2026-05-05 04:55 39.34013 96.66711 36983 ft 522 kts 123°
2026-05-05 04:56 39.30692 96.74983 36985 ft 522 kts 123°
2026-05-05 04:56 39.27346 96.83292 36974 ft 521 kts 123°
2026-05-05 04:57 39.24024 96.91607 36961 ft 521 kts 122°
2026-05-05 04:57 39.20715 96.99988 36975 ft 527 kts 122°
2026-05-05 04:58 39.17385 97.08396 36954 ft 524 kts 122°
2026-05-05 04:58 39.14060 97.16752 36955 ft 523 kts 122°
2026-05-05 04:59 39.10729 97.25096 36954 ft 524 kts 122°
2026-05-05 04:59 39.07407 97.33385 36950 ft 525 kts 122°
2026-05-05 05:00 39.04050 97.41743 36953 ft 527 kts 122°
2026-05-05 05:00 39.00683 97.50108 36959 ft 527 kts 121°
2026-05-05 05:01 38.97306 97.58483 36956 ft 529 kts 122°
2026-05-05 05:01 38.93913 97.66862 36974 ft 528 kts 122°
2026-05-05 05:02 38.90514 97.75230 36959 ft 529 kts 122°
2026-05-05 05:02 38.87107 97.83590 36941 ft 529 kts 122°
2026-05-05 05:03 38.83683 97.91970 36963 ft 530 kts 122°
2026-05-05 05:03 38.80258 98.00340 36941 ft 529 kts 122°
2026-05-05 05:04 38.76836 98.08671 36948 ft 528 kts 121°
2026-05-05 05:04 38.73407 98.16996 36926 ft 529 kts 121°
2026-05-05 05:05 38.69957 98.25352 36940 ft 531 kts 121°
2026-05-05 05:05 38.66502 98.33704 36896 ft 532 kts 122°
2026-05-05 05:06 38.63059 98.41995 36916 ft 531 kts 122°
2026-05-05 05:06 38.59585 98.50340 36932 ft 532 kts 121°
2026-05-05 05:07 38.56107 98.58679 36913 ft 532 kts 122°
2026-05-05 05:07 38.52617 98.67024 36937 ft 533 kts 121°
2026-05-05 05:08 38.49114 98.75378 36938 ft 535 kts 122°
2026-05-05 05:08 38.45587 98.83760 36937 ft 536 kts 121°
2026-05-05 05:09 38.42055 98.92133 36949 ft 536 kts 121°
2026-05-05 05:09 38.38511 99.00514 36935 ft 537 kts 121°
2026-05-05 05:10 38.35567 99.07460 36942 ft 536 kts 122°
2026-05-05 05:10 38.32019 99.15813 36944 ft 537 kts 121°
2026-05-05 05:11 38.28460 99.24167 36938 ft 536 kts 121°
2026-05-05 05:11 38.24896 99.32511 36931 ft 537 kts 121°
2026-05-05 05:12 38.21323 99.40853 36916 ft 537 kts 122°
2026-05-05 05:12 38.17745 99.49185 36923 ft 537 kts 122°
2026-05-05 05:13 38.14160 99.57512 36910 ft 537 kts 122°
2026-05-05 05:13 38.10568 99.65832 36907 ft 537 kts 121°
2026-05-05 05:14 38.06971 99.74142 36902 ft 537 kts 122°
2026-05-05 05:14 38.03366 99.82450 36898 ft 537 kts 122°
2026-05-05 05:15 37.99782 99.90690 36887 ft 537 kts 122°
2026-05-05 05:15 37.96167 99.98977 36880 ft 537 kts 122°
2026-05-05 05:16 37.92549 100.07250 36875 ft 537 kts 122°
2026-05-05 05:16 37.88923 100.15519 36871 ft 537 kts 122°
2026-05-05 05:17 37.85290 100.23787 36868 ft 537 kts 122°
2026-05-05 05:17 37.81648 100.32050 36865 ft 539 kts 122°
2026-05-05 05:18 37.77988 100.40331 36865 ft 539 kts 122°
2026-05-05 05:18 37.74323 100.48608 36856 ft 540 kts 122°
2026-05-05 05:19 37.70644 100.56893 36858 ft 541 kts 122°
2026-05-05 05:19 37.66953 100.65187 36854 ft 542 kts 122°
2026-05-05 05:20 37.63307 100.73521 36856 ft 543 kts 120°
2026-05-05 05:20 37.59785 100.81952 36862 ft 544 kts 120°
2026-05-05 05:21 37.56289 100.90342 36856 ft 545 kts 120°
2026-05-05 05:21 37.52732 100.98780 36858 ft 544 kts 120°
2026-05-05 05:22 37.49160 101.07200 36851 ft 545 kts 120°
2026-05-05 05:22 37.45578 101.15625 36854 ft 545 kts 120°
2026-05-05 05:23 37.42005 101.24011 36864 ft 543 kts 120°
2026-05-05 05:23 37.38425 101.32392 36852 ft 544 kts 120°
2026-05-05 05:24 37.34841 101.40761 36846 ft 544 kts 120°
2026-05-05 05:24 37.31271 101.49079 36861 ft 546 kts 120°
2026-05-05 05:25 37.28222 101.57814 36831 ft 548 kts 105°
2026-05-05 05:25 37.26355 101.67096 36821 ft 549 kts 103°
2026-05-05 05:26 37.24374 101.76358 36856 ft 550 kts 105°
2026-05-05 05:26 37.22244 101.85588 36860 ft 550 kts 106°
2026-05-05 05:27 37.20103 101.94811 36869 ft 551 kts 106°
2026-05-05 05:27 37.16890 102.08661 36871 ft 551 kts 106°
2026-05-05 05:28 37.14730 102.17877 36865 ft 551 kts 106°
2026-05-05 05:28 37.12560 102.27100 36857 ft 551 kts 106°
2026-05-05 05:29 37.09776 102.36016 36877 ft 550 kts 122°
2026-05-05 05:29 37.05476 102.43883 36872 ft 547 kts 126°
2026-05-05 05:30 37.01324 102.51861 36866 ft 547 kts 123°
2026-05-05 05:30 36.97308 102.59932 36868 ft 546 kts 122°
2026-05-05 05:31 36.93299 102.67988 36863 ft 546 kts 123°
2026-05-05 05:31 36.89288 102.75971 36857 ft 546 kts 123°
2026-05-05 05:32 36.85232 102.84011 36853 ft 547 kts 123°
2026-05-05 05:32 36.81184 102.92061 36848 ft 548 kts 121°
2026-05-05 05:33 36.77766 103.00566 36848 ft 549 kts 115°
2026-05-05 05:33 36.74569 103.09204 36835 ft 549 kts 115°
2026-05-05 05:34 36.71293 103.17816 36829 ft 550 kts 115°
2026-05-05 05:34 36.67946 103.26394 36844 ft 550 kts 116°
2026-05-05 05:35 36.64589 103.34953 36883 ft 550 kts 116°
2026-05-05 05:35 36.61231 103.43515 36927 ft 550 kts 116°
2026-05-05 05:36 36.57872 103.52068 36976 ft 550 kts 115°
2026-05-05 05:36 36.54507 103.60614 36982 ft 550 kts 115°
2026-05-05 05:37 36.50899 103.68897 36988 ft 549 kts 120°
2026-05-05 05:37 36.46976 103.77049 36956 ft 549 kts 121°
2026-05-05 05:38 36.43084 103.85202 36906 ft 548 kts 120°
2026-05-05 05:38 36.39245 103.93376 36842 ft 548 kts 120°
2026-05-05 05:39 36.35403 104.01556 36787 ft 548 kts 120°
2026-05-05 05:39 36.31554 104.09712 36778 ft 548 kts 120°
2026-05-05 05:40 36.27708 104.17870 36789 ft 548 kts 120°
2026-05-05 05:40 36.23863 104.26015 36780 ft 548 kts 120°
2026-05-05 05:41 36.20004 104.34168 36792 ft 548 kts 120°
2026-05-05 05:41 36.16137 104.42294 36777 ft 548 kts 120°
2026-05-05 05:42 36.12261 104.50406 36790 ft 547 kts 120°
2026-05-05 05:42 36.08382 104.58509 36793 ft 548 kts 120°
2026-05-05 05:43 36.04490 104.66627 36781 ft 548 kts 120°
2026-05-05 05:43 36.00635 104.74649 36781 ft 547 kts 120°
2026-05-05 05:44 35.96744 104.82727 36789 ft 547 kts 120°
2026-05-05 05:44 35.92853 104.90788 36782 ft 546 kts 120°
2026-05-05 05:45 35.90909 104.94807 37757 ft 538 kts 121°
2026-05-05 05:45 35.89040 104.98669 38164 ft 512 kts 121°
2026-05-05 05:45 35.87238 105.02400 37860 ft 500 kts 121°
2026-05-05 05:45 35.85482 105.06038 37620 ft 488 kts 121°
2026-05-05 05:46 35.83759 105.09609 37392 ft 483 kts 121°
2026-05-05 05:46 35.82039 105.13169 37257 ft 482 kts 121°
2026-05-05 05:46 35.78600 105.20274 36340 ft 485 kts 119°
2026-05-05 05:47 35.76862 105.23861 36599 ft 491 kts 119°
2026-05-05 05:47 35.75093 105.27508 36702 ft 500 kts 119°
2026-05-05 05:47 35.71458 105.34989 36823 ft 519 kts 119°
2026-05-05 05:48 35.67677 105.42750 36833 ft 538 kts 119°
2026-05-05 05:48 35.63808 105.50670 36836 ft 546 kts 119°
2026-05-05 05:49 35.59878 105.58695 36825 ft 549 kts 119°
2026-05-05 05:49 35.55933 105.66738 36839 ft 550 kts 119°
2026-05-05 05:50 35.52498 105.75058 36836 ft 543 kts 102°
2026-05-05 05:50 35.51730 105.79554 36841 ft 535 kts 91°
2026-05-05 05:50 35.51398 105.84083 36847 ft 532 kts 91°
2026-05-05 05:51 35.50262 105.93074 36854 ft 536 kts 96°
2026-05-05 05:51 35.48810 106.02068 36855 ft 537 kts 97°
2026-05-05 05:52 35.47367 106.11081 36851 ft 538 kts 96°
2026-05-05 05:52 35.45983 106.20082 36852 ft 537 kts 96°
2026-05-05 05:53 35.44611 106.29102 36844 ft 537 kts 96°
2026-05-05 05:53 35.43234 106.38096 36829 ft 536 kts 96°
2026-05-05 05:54 35.42082 106.45558 36823 ft 535 kts 96°
2026-05-05 05:54 35.40463 106.55981 36802 ft 534 kts 96°
2026-05-05 05:55 35.39069 106.64913 36802 ft 533 kts 96°
2026-05-05 05:55 35.37670 106.73836 36771 ft 533 kts 96°
2026-05-05 05:56 35.36265 106.82747 36793 ft 532 kts 96°
2026-05-05 05:56 35.35084 106.90197 36786 ft 532 kts 96°
2026-05-05 05:57 35.33681 106.99034 36780 ft 531 kts 96°
2026-05-05 05:57 35.32266 107.07916 36790 ft 531 kts 96°
2026-05-05 05:58 35.30844 107.16812 36783 ft 533 kts 96°
2026-05-05 05:58 35.29413 107.25717 36799 ft 533 kts 96°
2026-05-05 05:59 35.27973 107.34629 36806 ft 534 kts 96°
2026-05-05 05:59 35.26529 107.43532 36810 ft 534 kts 96°
2026-05-05 06:00 35.25076 107.52443 36823 ft 534 kts 96°
2026-05-05 06:00 35.23595 107.61348 36820 ft 534 kts 97°
2026-05-05 06:01 35.22101 107.70244 36834 ft 534 kts 97°
2026-05-05 06:01 35.21134 107.74620 36817 ft 538 kts 109°
2026-05-05 06:01 35.19341 107.78651 36823 ft 544 kts 126°
2026-05-05 06:02 35.16758 107.82028 36851 ft 545 kts 140°
2026-05-05 06:02 35.13815 107.84927 36857 ft 543 kts 140°
2026-05-05 06:02 35.08120 107.91042 36857 ft 547 kts 136°
2026-05-05 06:03 35.02531 107.97410 36860 ft 550 kts 136°
2026-05-05 06:03 34.96919 108.03776 36867 ft 551 kts 136°
2026-05-05 06:04 34.91301 108.10056 36874 ft 551 kts 137°
2026-05-05 06:04 34.85631 108.16361 36877 ft 551 kts 137°
2026-05-05 06:05 34.79972 108.22646 36877 ft 549 kts 137°
2026-05-05 06:05 34.74339 108.28892 36882 ft 548 kts 137°
2026-05-05 06:06 34.68709 108.35124 36883 ft 547 kts 136°
2026-05-05 06:06 34.63084 108.41338 36880 ft 546 kts 136°
2026-05-05 06:07 34.57540 108.47453 36887 ft 546 kts 137°
2026-05-05 06:07 34.51859 108.53563 36890 ft 545 kts 144°
2026-05-05 06:08 34.48587 108.55857 36886 ft 543 kts 160°
2026-05-05 06:08 34.44985 108.57156 36907 ft 539 kts 172°
2026-05-05 06:08 34.37605 108.58621 36900 ft 540 kts 171°
2026-05-05 06:09 34.30311 108.60708 36898 ft 544 kts 168°
2026-05-05 06:09 34.22931 108.62893 36886 ft 547 kts 169°
2026-05-05 06:10 34.15505 108.64973 36870 ft 548 kts 170°
2026-05-05 06:10 34.08111 108.67161 36875 ft 548 kts 161°
2026-05-05 06:11 34.04697 108.69211 36901 ft 550 kts 145°
2026-05-05 06:11 34.01830 108.72220 36924 ft 547 kts 130°
2026-05-05 06:11 33.97150 108.79379 36931 ft 544 kts 127°
2026-05-05 06:12 33.92210 108.86358 36924 ft 548 kts 129°
2026-05-05 06:12 33.87168 108.93259 36934 ft 549 kts 129°
2026-05-05 06:13 33.82158 109.00183 36966 ft 547 kts 129°
2026-05-05 06:13 33.77225 109.07055 36963 ft 547 kts 128°
2026-05-05 06:14 33.72256 109.13980 36956 ft 547 kts 128°
2026-05-05 06:14 33.67271 109.20905 36949 ft 547 kts 128°
2026-05-05 06:15 33.62284 109.27810 36946 ft 547 kts 129°
2026-05-05 06:15 33.57298 109.34702 36953 ft 546 kts 129°
2026-05-05 06:16 33.52311 109.41585 36949 ft 546 kts 129°
2026-05-05 06:16 33.47332 109.48447 36950 ft 545 kts 129°
2026-05-05 06:17 33.43082 109.55804 36945 ft 531 kts 106°
2026-05-05 06:17 33.42138 109.59966 36917 ft 520 kts 92°
2026-05-05 06:17 33.41960 109.64287 36909 ft 508 kts 78°
2026-05-05 06:18 33.42901 109.72508 36898 ft 505 kts 76°
2026-05-05 06:18 33.43802 109.80930 36912 ft 512 kts 76°
2026-05-05 06:19 33.44618 109.89346 36918 ft 507 kts 77°
2026-05-05 06:19 33.45410 109.97720 36911 ft 505 kts 77°
2026-05-05 06:20 33.46206 110.06061 36912 ft 503 kts 77°
2026-05-05 06:20 33.47000 110.14387 36917 ft 504 kts 77°
2026-05-05 06:21 33.47792 110.22767 36916 ft 508 kts 77°
2026-05-05 06:21 33.48576 110.31163 36913 ft 507 kts 77°
2026-05-05 06:22 33.49357 110.39562 36910 ft 507 kts 77°
2026-05-05 06:22 33.50132 110.47960 36908 ft 507 kts 77°
2026-05-05 06:23 33.50898 110.56359 36914 ft 507 kts 77°
2026-05-05 06:23 33.51658 110.64763 36901 ft 507 kts 77°
2026-05-05 06:24 33.52414 110.73167 36895 ft 507 kts 77°
2026-05-05 06:24 33.53166 110.81575 36887 ft 507 kts 77°
2026-05-05 06:25 33.53316 110.85810 36877 ft 515 kts 89°
2026-05-05 06:25 33.52634 110.90066 36888 ft 526 kts 104°
2026-05-05 06:25 33.49466 110.98041 36897 ft 530 kts 112°
2026-05-05 06:26 33.46434 111.06084 36886 ft 531 kts 109°
2026-05-05 06:26 33.43559 111.14235 36888 ft 532 kts 109°
2026-05-05 06:27 33.39216 111.26416 36895 ft 534 kts 109°
2026-05-05 06:28 33.36258 111.34566 36887 ft 534 kts 110°
2026-05-05 06:28 33.33293 111.42702 36890 ft 533 kts 110°
2026-05-05 06:29 33.30327 111.50827 36892 ft 532 kts 110°
2026-05-05 06:29 33.27365 111.58930 36889 ft 532 kts 110°
2026-05-05 06:30 33.24398 111.67030 36890 ft 531 kts 110°
2026-05-05 06:30 33.21432 111.75106 36891 ft 531 kts 110°
2026-05-05 06:31 33.18477 111.83140 37633 ft 516 kts 114°
2026-05-05 06:31 33.17050 111.87011 37430 ft 504 kts 114°
2026-05-05 06:31 33.15655 111.90785 37277 ft 491 kts 114°
2026-05-05 06:32 33.12917 111.98184 37140 ft 485 kts 114°
2026-05-05 06:32 33.10210 112.05483 37108 ft 484 kts 114°
2026-05-05 06:33 33.07486 112.12813 37104 ft 483 kts 114°
2026-05-05 06:33 33.04756 112.20147 37105 ft 484 kts 114°
2026-05-05 06:34 33.02011 112.27503 37103 ft 486 kts 114°
2026-05-05 06:34 32.99258 112.34865 37102 ft 487 kts 114°
2026-05-05 06:34 32.97877 112.38550 36590 ft 488 kts 111°
2026-05-05 06:35 32.96478 112.42276 36692 ft 495 kts 110°
2026-05-05 06:35 32.95064 112.46053 36818 ft 503 kts 110°
2026-05-05 06:35 32.93627 112.49887 36894 ft 511 kts 110°
2026-05-05 06:36 32.90547 112.57684 36922 ft 531 kts 116°
2026-05-05 06:36 32.86668 112.65237 36922 ft 537 kts 120°
2026-05-05 06:37 32.82685 112.72688 36923 ft 538 kts 119°
2026-05-05 06:37 32.78735 112.80243 36918 ft 537 kts 118°
2026-05-05 06:38 32.74841 112.87809 36921 ft 536 kts 118°
2026-05-05 06:38 32.70956 112.95365 36931 ft 536 kts 118°
2026-05-05 06:39 32.67066 113.02900 36930 ft 535 kts 119°
2026-05-05 06:39 32.63828 113.09154 36931 ft 534 kts 119°
2026-05-05 06:40 32.59284 113.17908 36943 ft 533 kts 119°
2026-05-05 06:40 32.56044 113.24138 36942 ft 533 kts 119°
2026-05-05 06:41 32.51520 113.32822 36947 ft 532 kts 119°
2026-05-05 06:41 32.48259 113.39070 36951 ft 532 kts 119°
2026-05-05 06:42 32.44390 113.46469 36955 ft 532 kts 119°
2026-05-05 06:42 32.40494 113.53908 36962 ft 532 kts 120°
2026-05-05 06:43 32.37089 113.61576 36950 ft 521 kts 101°
2026-05-05 06:43 32.36541 113.65768 36966 ft 513 kts 87°
2026-05-05 06:43 32.36777 113.69929 36975 ft 504 kts 73°
2026-05-05 06:44 32.38843 113.77745 36979 ft 498 kts 66°
2026-05-05 06:44 32.40989 113.85586 36978 ft 503 kts 67°
2026-05-05 06:45 32.43074 113.93500 36976 ft 505 kts 68°
2026-05-05 06:45 32.45139 114.01473 36974 ft 506 kts 68°
2026-05-05 06:46 32.47183 114.09396 36965 ft 506 kts 68°
2026-05-05 06:46 32.49248 114.17405 36966 ft 504 kts 68°
2026-05-05 06:47 32.51290 114.25341 36963 ft 503 kts 68°
2026-05-05 06:47 32.53315 114.33226 36967 ft 502 kts 68°
2026-05-05 06:48 32.55341 114.41142 36974 ft 502 kts 68°
2026-05-05 06:48 32.57361 114.49056 36972 ft 501 kts 69°
2026-05-05 06:49 32.59376 114.56973 36978 ft 502 kts 69°
2026-05-05 06:49 32.61387 114.64899 36979 ft 502 kts 69°
2026-05-05 06:50 32.63397 114.72842 36977 ft 503 kts 69°
2026-05-05 06:50 32.65400 114.80787 36987 ft 503 kts 69°
2026-05-05 06:51 32.67406 114.88762 36985 ft 504 kts 69°
2026-05-05 06:51 32.69409 114.96748 36983 ft 505 kts 69°
2026-05-05 06:52 32.71408 115.04745 36996 ft 505 kts 69°
2026-05-05 06:52 32.73388 115.12690 36999 ft 505 kts 69°
2026-05-05 06:53 32.75378 115.20695 36995 ft 505 kts 70°
2026-05-05 06:53 32.77362 115.28706 37002 ft 506 kts 70°
2026-05-05 06:54 32.79344 115.36728 36999 ft 506 kts 70°
2026-05-05 06:54 32.81321 115.44758 37003 ft 506 kts 70°
2026-05-05 06:55 32.83295 115.52798 37005 ft 506 kts 70°
2026-05-05 06:55 32.85261 115.60831 37006 ft 506 kts 70°
2026-05-05 06:56 32.86914 115.68961 36997 ft 510 kts 85°
2026-05-05 06:56 32.86617 115.73176 37012 ft 516 kts 102°
2026-05-05 06:56 32.85423 115.77206 37013 ft 520 kts 116°
2026-05-05 06:56 32.83396 115.80760 37019 ft 519 kts 130°
2026-05-05 06:57 32.81030 115.84018 37019 ft 521 kts 131°
2026-05-05 06:57 32.76247 115.90523 37019 ft 524 kts 130°
2026-05-05 06:58 32.71548 115.97100 37017 ft 526 kts 130°
2026-05-05 06:58 32.66848 116.03784 37022 ft 527 kts 130°
2026-05-05 06:59 32.62143 116.10465 37021 ft 527 kts 130°
2026-05-05 06:59 32.57437 116.17116 37009 ft 526 kts 130°
2026-05-05 07:00 32.52765 116.23796 37016 ft 525 kts 129°
2026-05-05 07:00 32.48157 116.30502 37019 ft 524 kts 129°
2026-05-05 07:01 32.43547 116.37199 37022 ft 524 kts 129°
2026-05-05 07:01 32.38933 116.43866 37019 ft 523 kts 130°
2026-05-05 07:02 32.34318 116.50514 37023 ft 523 kts 130°
2026-05-05 07:02 32.29705 116.57151 37037 ft 522 kts 130°
2026-05-05 07:03 32.25085 116.63787 37036 ft 522 kts 130°
2026-05-05 07:03 32.20498 116.70366 37030 ft 522 kts 130°
2026-05-05 07:04 32.15853 116.76955 37033 ft 522 kts 131°
2026-05-05 07:04 32.11149 116.83477 37036 ft 522 kts 131°
2026-05-05 07:05 32.06444 116.89995 37040 ft 522 kts 131°
2026-05-05 07:05 32.01746 116.96519 37039 ft 521 kts 131°
2026-05-05 07:06 31.97045 117.03039 37040 ft 521 kts 131°
2026-05-05 07:06 31.92359 117.09560 37039 ft 521 kts 131°
2026-05-05 07:07 31.87673 117.16085 37040 ft 522 kts 131°
2026-05-05 07:07 31.82986 117.22597 37041 ft 522 kts 132°
2026-05-05 07:08 31.78547 117.29315 37032 ft 522 kts 118°
2026-05-05 07:08 31.77238 117.33229 37037 ft 522 kts 102°
2026-05-05 07:08 31.76773 117.37454 37055 ft 521 kts 90°
2026-05-05 07:09 31.76504 117.45958 37053 ft 523 kts 93°
2026-05-05 07:09 31.75889 117.54500 37056 ft 526 kts 95°
2026-05-05 07:10 31.75227 117.63088 37054 ft 529 kts 94°
2026-05-05 07:10 31.74600 117.71718 37054 ft 530 kts 94°
2026-05-05 07:11 31.73988 117.80347 37054 ft 530 kts 94°
2026-05-05 07:11 31.73370 117.88972 37050 ft 529 kts 94°
2026-05-05 07:12 31.72744 117.97580 37055 ft 529 kts 95°
2026-05-05 07:12 31.72112 118.06186 37054 ft 528 kts 95°
2026-05-05 07:13 31.71488 118.14720 37058 ft 527 kts 94°
2026-05-05 07:13 31.70894 118.23298 37057 ft 527 kts 94°
2026-05-05 07:14 31.70300 118.31882 37059 ft 528 kts 95°
2026-05-05 07:14 31.69694 118.40477 37056 ft 528 kts 95°
2026-05-05 07:15 31.69078 118.49076 37058 ft 529 kts 95°
2026-05-05 07:15 31.68456 118.57688 37052 ft 529 kts 95°
2026-05-05 07:16 31.67828 118.66302 37045 ft 530 kts 95°
2026-05-05 07:16 31.67193 118.74933 37035 ft 531 kts 95°
2026-05-05 07:16 31.66873 118.79259 36747 ft 534 kts 95°
2026-05-05 07:17 31.66548 118.83613 36236 ft 534 kts 95°
2026-05-05 07:17 31.66226 118.87936 35759 ft 529 kts 95°
2026-05-05 07:17 31.65905 118.92215 35289 ft 524 kts 95°
2026-05-05 07:17 31.65590 118.96398 34840 ft 521 kts 95°
2026-05-05 07:18 31.65269 119.00624 34390 ft 517 kts 95°
2026-05-05 07:18 31.64941 119.04816 33948 ft 516 kts 95°
2026-05-05 07:18 31.64696 119.09032 33438 ft 519 kts 93°
2026-05-05 07:18 31.64524 119.13261 32938 ft 521 kts 92°
2026-05-05 07:19 31.64353 119.17523 32432 ft 522 kts 92°
2026-05-05 07:19 31.64169 119.21777 31938 ft 522 kts 93°
2026-05-05 07:19 31.63974 119.26034 31456 ft 521 kts 93°
2026-05-05 07:19 31.63775 119.30275 30963 ft 519 kts 93°
2026-05-05 07:20 31.63578 119.34488 30484 ft 516 kts 92°
2026-05-05 07:20 31.63381 119.38683 30017 ft 513 kts 92°
2026-05-05 07:20 31.63185 119.42840 29465 ft 508 kts 92°
2026-05-05 07:20 31.62989 119.46954 28908 ft 501 kts 93°
2026-05-05 07:21 31.62794 119.51006 28371 ft 494 kts 93°
2026-05-05 07:21 31.62602 119.54968 27832 ft 487 kts 93°
2026-05-05 07:21 31.62410 119.58917 27311 ft 482 kts 93°
2026-05-05 07:21 31.62220 119.62822 26810 ft 477 kts 93°
2026-05-05 07:22 31.62030 119.66687 26306 ft 473 kts 93°
2026-05-05 07:22 31.61847 119.70522 25810 ft 469 kts 93°
2026-05-05 07:22 31.61673 119.74327 25330 ft 465 kts 92°
2026-05-05 07:22 31.61503 119.78102 24858 ft 462 kts 92°
2026-05-05 07:23 31.61334 119.81858 24388 ft 458 kts 92°
2026-05-05 07:23 31.61166 119.85572 23925 ft 455 kts 93°
2026-05-05 07:23 31.60997 119.89266 23462 ft 452 kts 93°
2026-05-05 07:23 31.60827 119.92943 22927 ft 449 kts 93°
2026-05-05 07:24 31.60655 119.96594 22400 ft 447 kts 93°
2026-05-05 07:24 31.60484 120.00219 21872 ft 444 kts 93°
2026-05-05 07:24 31.60312 120.03827 21378 ft 442 kts 93°
2026-05-05 07:24 31.60143 120.07370 20872 ft 440 kts 93°
2026-05-05 07:25 31.59972 120.10944 20380 ft 438 kts 93°
2026-05-05 07:25 31.59800 120.14502 19884 ft 436 kts 93°
2026-05-05 07:25 31.59628 120.18052 19411 ft 434 kts 93°
2026-05-05 07:25 31.59456 120.21577 18944 ft 432 kts 93°
2026-05-05 07:26 31.59284 120.25089 18473 ft 430 kts 93°
2026-05-05 07:26 31.59112 120.28584 17982 ft 429 kts 93°
2026-05-05 07:26 31.58895 120.32064 17449 ft 426 kts 98°
2026-05-05 07:26 31.58234 120.35431 16929 ft 423 kts 109°
2026-05-05 07:27 31.57191 120.38638 16431 ft 418 kts 112°
2026-05-05 07:27 31.56154 120.41801 15944 ft 413 kts 111°
2026-05-05 07:27 31.55160 120.44941 15719 ft 412 kts 110°
2026-05-05 07:27 31.54518 120.47027 15678 ft 408 kts 110°
2026-05-05 07:28 31.53572 120.50155 15670 ft 406 kts 110°
2026-05-05 07:28 31.52641 120.53285 15677 ft 409 kts 110°
2026-05-05 07:28 31.51392 120.57504 15673 ft 410 kts 110°
2026-05-05 07:28 31.50773 120.59596 15678 ft 410 kts 110°
2026-05-05 07:29 31.49524 120.63813 15680 ft 410 kts 110°
2026-05-05 07:29 31.48903 120.65904 15675 ft 410 kts 110°
2026-05-05 07:29 31.47968 120.69051 15677 ft 409 kts 110°
2026-05-05 07:29 31.46728 120.73226 15671 ft 410 kts 110°
2026-05-05 07:30 31.46096 120.75351 15669 ft 409 kts 110°
2026-05-05 07:30 31.44206 120.81630 15665 ft 408 kts 110°
2026-05-05 07:30 31.43233 120.84754 15674 ft 408 kts 111°
2026-05-05 07:31 31.42255 120.87876 15671 ft 409 kts 111°
2026-05-05 07:31 31.41281 120.91001 15671 ft 409 kts 111°
2026-05-05 07:31 31.40306 120.94130 15680 ft 409 kts 111°
2026-05-05 07:31 31.39339 120.97260 15671 ft 409 kts 110°
2026-05-05 07:32 31.38384 121.00401 15592 ft 411 kts 110°
2026-05-05 07:32 31.37438 121.03527 15153 ft 414 kts 110°
2026-05-05 07:32 31.36480 121.06689 14665 ft 411 kts 110°
2026-05-05 07:32 31.35526 121.09819 14197 ft 405 kts 110°
2026-05-05 07:33 31.34587 121.12912 13721 ft 400 kts 110°
2026-05-05 07:33 31.33668 121.15970 13195 ft 396 kts 110°
2026-05-05 07:33 31.32764 121.18990 12681 ft 391 kts 110°
2026-05-05 07:33 31.31866 121.21978 12180 ft 387 kts 110°
2026-05-05 07:34 31.31001 121.24862 11883 ft 363 kts 110°
2026-05-05 07:34 31.30220 121.27462 11814 ft 333 kts 110°
2026-05-05 07:34 31.29487 121.29900 11796 ft 305 kts 110°
2026-05-05 07:34 31.28784 121.32229 11652 ft 307 kts 110°
2026-05-05 07:35 31.28066 121.34600 11170 ft 312 kts 110°
2026-05-05 07:35 31.27345 121.36971 10691 ft 306 kts 110°
2026-05-05 07:35 31.26643 121.39284 10197 ft 298 kts 110°
2026-05-05 07:35 31.25959 121.41537 9707 ft 290 kts 110°
2026-05-05 07:36 31.25293 121.43731 9187 ft 283 kts 110°
2026-05-05 07:36 31.24638 121.45881 8673 ft 278 kts 110°
2026-05-05 07:36 31.23995 121.47992 8177 ft 274 kts 110°
2026-05-05 07:36 31.23360 121.50080 7666 ft 271 kts 110°
2026-05-05 07:37 31.22797 121.52163 7173 ft 268 kts 99°
2026-05-05 07:37 31.22947 121.54307 6682 ft 266 kts 73°
2026-05-05 07:37 31.23523 121.56346 6220 ft 263 kts 72°
2026-05-05 07:37 31.24087 121.58383 5722 ft 263 kts 72°
2026-05-05 07:38 31.24927 121.60251 5277 ft 260 kts 46°
2026-05-05 07:38 31.26382 121.61346 5090 ft 248 kts 16°
2026-05-05 07:38 31.28061 121.61567 5047 ft 236 kts 354°
2026-05-05 07:38 31.29628 121.61157 4977 ft 235 kts 341°
2026-05-05 07:39 31.31196 121.60543 4746 ft 240 kts 339°
2026-05-05 07:39 31.32801 121.59906 4497 ft 241 kts 340°
2026-05-05 07:39 31.34374 121.59290 4254 ft 242 kts 340°
2026-05-05 07:39 31.35975 121.58672 3985 ft 243 kts 340°
2026-05-05 07:40 31.37593 121.58137 3736 ft 241 kts 353°
2026-05-05 07:40 31.39214 121.58522 3436 ft 239 kts 32°
2026-05-05 07:40 31.40356 121.59859 3217 ft 231 kts 64°
2026-05-05 07:40 31.40912 121.61568 3093 ft 220 kts 80°
2026-05-05 07:41 31.41252 121.63334 3029 ft 221 kts 81°
2026-05-05 07:41 31.41567 121.65070 3024 ft 216 kts 82°
2026-05-05 07:41 31.41651 121.66770 3012 ft 205 kts 110°
2026-05-05 07:41 31.40911 121.68147 3068 ft 204 kts 145°
2026-05-05 07:42 31.39656 121.68940 3054 ft 202 kts 158°
2026-05-05 07:42 31.38349 121.69577 3030 ft 205 kts 161°
2026-05-05 07:42 31.37005 121.70141 3041 ft 204 kts 163°
2026-05-05 07:42 31.35656 121.70669 3022 ft 204 kts 163°
2026-05-05 07:43 31.34301 121.71186 3030 ft 204 kts 163°
2026-05-05 07:43 31.32960 121.71696 3024 ft 202 kts 163°
2026-05-05 07:43 31.31637 121.72199 3045 ft 203 kts 163°
2026-05-05 07:43 31.30271 121.72718 2979 ft 207 kts 164°
2026-05-05 07:44 31.28908 121.73237 2714 ft 201 kts 163°
2026-05-05 07:44 31.27637 121.73721 2453 ft 188 kts 164°
2026-05-05 07:44 31.26422 121.74183 2211 ft 175 kts 164°
2026-05-05 07:44 31.25322 121.74620 2009 ft 158 kts 165°
2026-05-05 07:45 31.24317 121.74964 1791 ft 148 kts 171°
2026-05-05 07:45 31.23365 121.75326 1557 ft 139 kts 162°
2026-05-05 07:45 31.22484 121.75656 1435 ft 137 kts 164°
2026-05-05 07:45 31.21607 121.76008 1273 ft 133 kts 164°
2026-05-05 07:46 31.20755 121.76336 1077 ft 126 kts 164°
2026-05-05 07:46 31.19942 121.76646 928 ft 122 kts 162°
2026-05-05 07:46 31.19116 121.76963 779 ft 128 kts 162°
2026-05-05 07:46 31.18250 121.77279 588 ft 133 kts 164°
2026-05-05 07:47 31.17357 121.77591 472 ft 134 kts 159°
2026-05-05 07:47 31.16477 121.77950 292 ft 132 kts 160°
2026-05-05 07:47 31.15640 121.78284 111 ft 124 kts 162°
2026-05-05 07:47 31.14833 121.78581 27 ft 119 kts 162°
2026-05-05 07:48 31.14216 121.78814 27 ft 66 kts 162°
2026-05-05 07:48 31.13934 121.78921 28 ft 33 kts 162°
2026-05-05 07:48 31.13721 121.79002 27 ft 31 kts 161°
2026-05-05 07:48 31.13537 121.79120 29 ft 30 kts 139°
2026-05-05 07:49 31.13471 121.79197 28 ft 0 kts 133°
2026-05-05 07:49 31.13469 121.79200 28 ft 3 kts 133°
2026-05-05 07:49 31.13424 121.79255 28 ft 12 kts 135°
2026-05-05 07:50 31.13363 121.79324 28 ft 12 kts 142°
2026-05-05 07:50 31.13318 121.79402 28 ft 12 kts 86°
2026-05-05 07:50 31.13341 121.79501 28 ft 10 kts 71°
2026-05-05 07:50 31.13345 121.79515 28 ft 0 kts 71°
2026-05-05 07:52 31.13376 121.79625 27 ft 29 kts 71°
2026-05-05 07:53 31.13427 121.79800 27 ft 19 kts 71°
2026-05-05 07:53 31.13499 121.79912 28 ft 19 kts
2026-05-05 07:53 31.13628 121.79872 28 ft 19 kts 339°
2026-05-05 07:53 31.13775 121.79812 28 ft 24 kts 342°
2026-05-05 07:54 31.13939 121.79752 28 ft 25 kts 342°
2026-05-05 07:54 31.14102 121.79690 28 ft 25 kts 342°
2026-05-05 07:54 31.14265 121.79629 28 ft 25 kts 341°
2026-05-05 07:54 31.14429 121.79567 28 ft 25 kts 342°
2026-05-05 07:55 31.14592 121.79505 28 ft 25 kts 342°
2026-05-05 07:55 31.14755 121.79444 28 ft 25 kts 342°
2026-05-05 07:55 31.14886 121.79422 28 ft 18 kts 34°
2026-05-05 07:55 31.14931 121.79558 28 ft 17 kts 85°
2026-05-05 07:56 31.14913 121.79648 28 ft 11 kts 90°
2026-05-05 07:56 31.14921 121.79673 28 ft 6 kts 64°
2026-05-05 07:56 31.14934 121.79711 28 ft 0 kts 70°
2026-05-05 07:57 31.14937 121.79722 28 ft 1 kts 71°
2026-05-05 07:57 31.14938 121.79727 28 ft 0 kts 71°